Skip Page Navigation
NASA JPL Caltech
NASA Logo - Jet Propulsion Laboratory + View the NASA Portal
+ Near-Earth Object (NEO) Program
Search JPL
JPL Home Earth Solar System Stars & Galaxies Technology
JPL Solar System Dynamics
BODIES ORBITS EPHEMERIDES TOOLS PHYSICAL DATA DISCOVERY FAQ SITE MAP
JPL Small-Body Database Browser
Search: [ help ]  
(2006 LK)
Classification: Amor [NEO, PHA]          SPK-ID: 3335424
Ephemeris | Orbit Diagram | Orbital Elements | Physical Parameters | Close-Approach Data ]

[ hide orbit diagram ]
Orbit Diagram
Note: Make sure you have Java enabled on your browser to see the applet. This applet is provided as a 3D orbit visualization tool. The applet was implemented using 2-body methods, and hence should not be used for determining accurate long-term trajectories (over several years or decades) or planetary encounter circumstances. For accurate long-term ephemerides, please instead use our Horizons system.
Orbit Viewer

Additional Notes: the orbits shown in the applet are color coded. The planets are white lines, and the asteroid/comet is a blue line. The bright white line indicates the portion of the orbit that is above the ecliptic plane, and the darker portion is below the ecliptic plane. Likewise for the asteroid/comet orbit, the light blue indicates the portion above the ecliptic plane, and the dark blue the portion below the ecliptic plane.

Orbit Viewer applet originally written and kindly provided by Osamu Ajiki (AstroArts), and further modified by Ron Baalke (JPL).


Orbital Elements at Epoch 2456400.5 (2013-Apr-18.0) TDB
Reference: JPL 15 (heliocentric ecliptic J2000)
 Element Value Uncertainty (1-sigma)   Units 
e .6385714991320389 4.3773e-07  
a 2.854976206734368 1.1173e-07 AU
q 1.031869770413701 1.2638e-06 AU
i 10.17705449574584 1.9008e-05 deg
node 157.7756092987773 0.00034169 deg
peri 194.3487066761331 0.00031092 deg
M 123.9673669094201 2.246e-05 deg
tp 2455793.753831227087
(2011-Aug-20.25383123)
9.5914e-05 JED
period 1761.984836847015
4.82
0.00010344
2.832e-07
d
yr
n .2043150386266674 1.1994e-08 deg/d
Q 4.678082643055036 1.8308e-07 AU
  Orbit Determination Parameters
   # obs. used (total)      52  
   data-arc span      1829 days (5.01 yr)  
   first obs. used      2006-06-01  
   last obs. used      2011-06-04  
   planetary ephem.      DE405  
   SB-pert. ephem.      SB405-CPV-2  
   condition code      0  
   fit RMS      .65064  
   data source      ORB  
   producer      Otto Matic  
   solution date      2011-Sep-14 20:10:20  

Additional Information
 Earth MOID = .0326666 AU 
 T_jup = 2.945 
[ show covariance matrix ]

Ephemeris | Orbit Diagram | Orbital Elements | Physical Parameters | Close-Approach Data ]

Physical Parameter Table
Parameter Symbol Value Units Sigma Reference Notes
absolute magnitude H 19.735 mag .48855 15 autocmod 2.5a

[ show close-approach data ]
Ephemeris | Orbit Diagram | Orbital Elements | Physical Parameters | Close-Approach Data ]
ABOUT SSD CREDITS/AWARDS PRIVACY/COPYRIGHT GLOSSARY LINKS
FirstGov 2013-May-24 14:18 UT
(server date/time)  
NASA Home Page
Site Manager:   Donald K. Yeomans
Webmaster  Alan B. Chamberlin